Theta_e
300 300 300 300 300 299 298 299 300 299 300 301 300 301 303 305 306 306 305 305 305 309 309 303 302 306 305 304 304 305 306 307 307 305 304 306 307 307 309 309 309 309 308 308 306 306 306 307 307 308 309 308 307 309 310 307 305 307 309 309 309 309 308 308 310 309 308 307 306 305 304 304 305 305 305 304 304 304 304 305 306 306 306 306 307 307 307
300 300 300 300 300 299 299 299 299 299 300 300 300 302 302 301 303 305 304 302 305 308 306 303 305 305 304 304 305 305 305 306 305 303 305 305 305 306 308 308 308 307 306 306 305 305 306 307 307 307 308 308 308 309 310 307 306 308 310 310 310 310 309 309 310 311 310 309 308 307 306 305 306 306 306 306 305 305 305 306 307 307 306 305 306 307 306
300 300 300 300 300 299 299 299 299 299 300 300 301 302 301 302 303 304 303 301 304 305 303 303 305 305 303 305 305 304 304 304 303 303 304 304 304 305 306 307 308 307 305 304 304 304 305 306 307 306 307 307 307 309 309 307 306 307 309 310 310 310 310 310 311 313 313 312 311 310 308 307 306 306 306 306 306 306 306 307 306 306 306 305 305 306 306
300 300 300 300 300 299 299 299 300 300 300 300 301 301 302 304 306 306 304 303 303 302 301 302 303 302 303 304 304 304 303 303 302 302 303 303 303 304 306 307 307 307 305 304 304 304 304 305 306 305 306 306 306 308 307 305 305 308 310 312 310 309 310 310 311 312 313 313 311 310 309 309 308 307 307 307 306 306 307 307 307 306 306 306 305 305 306
301 301 300 299 299 299 299 299 300 300 300 300 301 301 301 304 305 303 303 303 302 301 300 301 301 301 302 303 303 303 303 303 302 302 303 303 303 304 306 306 305 304 304 303 304 304 304 305 305 304 305 305 305 305 304 304 307 311 313 312 310 310 311 311 311 311 311 311 311 310 310 311 310 309 309 308 307 307 308 308 308 307 306 306 306 307 307
301 301 300 300 299 299 300 299 299 300 301 300 302 302 301 302 302 300 300 302 302 301 301 301 302 301 302 303 303 303 303 303 303 303 302 302 303 303 304 305 304 303 303 303 304 304 304 304 304 304 304 304 304 304 304 306 310 312 312 311 310 310 312 312 312 311 311 311 311 311 311 311 310 310 310 310 310 309 309 308 308 307 307 306 306 308 308
301 302 301 300 299 299 299 299 299 300 300 300 302 303 302 301 301 299 300 301 301 300 301 301 301 302 303 303 303 303 303 302 302 302 302 302 303 302 303 304 303 303 303 303 303 304 304 304 304 304 304 304 304 305 306 308 311 311 310 310 309 309 311 312 312 312 312 312 312 312 311 311 311 310 309 310 310 310 309 309 308 308 308 307 307 308 308
301 302 302 301 300 299 299 299 299 300 301 300 301 302 302 301 301 301 300 301 301 301 302 301 301 302 302 303 303 302 302 302 302 301 301 303 303 303 303 303 303 303 303 303 303 304 304 304 304 304 304 304 304 305 306 307 309 309 309 310 310 310 312 313 313 313 313 313 314 313 312 311 311 311 310 310 311 311 311 312 311 310 310 308 308 308 308
301 301 302 302 301 300 299 299 299 299 300 300 300 300 300 300 301 300 300 301 302 301 301 300 300 301 302 302 302 302 301 301 301 301 301 302 303 303 303 303 302 302 302 303 303 304 303 303 303 303 303 304 304 304 305 305 307 307 307 310 311 310 311 312 313 314 314 314 315 315 313 312 312 312 312 312 313 313 313 314 313 313 312 311 310 309 307
301 301 301 302 301 300 299 299 299 298 299 299 299 300 300 300 301 300 300 301 301 300 300 300 300 302 302 302 302 301 301 301 300 302 302 301 302 302 302 302 302 302 303 303 303 303 302 302 302 302 302 302 302 303 303 303 304 305 307 309 311 311 312 313 313 314 314 314 315 315 314 314 314 314 313 313 314 314 314 314 314 313 312 312 311 310 309
301 301 301 301 301 301 300 299 299 298 298 299 299 299 299 300 301 300 300 302 301 300 300 301 301 302 301 301 301 300 300 300 300 302 302 301 301 301 301 301 302 302 303 303 302 301 301 301 301 302 302 302 302 303 303 303 304 305 306 308 310 313 313 313 313 314 314 315 315 314 315 316 316 313 311 312 313 314 315 316 316 315 313 312 313 313 315
301 301 301 301 301 301 300 300 299 298 298 298 298 299 299 299 300 300 300 303 302 300 301 301 301 301 301 300 301 300 300 300 300 301 301 301 301 301 301 301 302 303 303 302 301 301 301 302 303 303 304 304 304 304 304 305 306 305 306 307 310 312 313 312 313 313 314 315 315 316 318 317 315 312 311 311 312 313 313 313 313 314 315 317 318 318 318
301 301 301 301 301 301 301 300 300 299 298 298 298 298 298 298 300 300 300 302 302 301 301 301 301 301 301 300 300 300 300 300 300 300 300 301 301 301 301 301 302 302 301 301 300 301 303 304 304 304 305 305 306 307 306 304 304 304 305 307 309 311 312 312 313 313 314 315 317 319 319 316 313 313 313 313 313 314 314 313 314 315 317 319 319 318 318
301 301 301 300 301 301 301 300 300 300 299 298 298 298 298 298 299 300 300 301 302 301 301 302 301 300 300 301 300 300 300 300 300 300 300 300 301 301 301 301 301 301 301 300 301 303 304 303 303 304 304 305 307 308 306 303 303 303 303 304 306 308 311 314 314 314 315 316 317 318 317 315 314 314 313 313 314 315 316 316 317 317 317 318 319 318 318
303 302 301 300 300 301 301 301 300 300 299 298 298 298 298 298 299 300 300 300 301 301 301 301 301 300 300 300 300 300 300 300 300 300 300 301 301 301 301 300 301 301 301 301 302 303 303 303 303 303 304 305 305 305 304 303 303 303 302 303 304 308 312 314 314 313 313 314 317 318 317 317 315 313 312 312 313 315 316 316 318 319 318 317 318 319 319
305 304 302 301 300 300 301 301 300 300 299 299 298 297 298 299 299 300 300 300 301 303 302 300 300 300 300 300 300 300 300 300 300 301 301 301 301 300 300 300 301 301 301 301 303 303 302 303 302 302 304 305 304 303 303 303 303 303 303 303 305 308 311 312 312 312 311 312 316 319 319 317 315 312 311 312 312 314 316 318 319 320 317 316 318 319 319
307 306 304 303 302 300 301 302 301 300 300 299 299 298 298 299 300 300 300 299 301 302 300 299 299 300 300 300 300 300 300 300 300 301 302 301 301 300 300 301 301 301 301 302 302 302 303 303 303 302 303 304 304 304 303 303 304 304 304 304 305 308 309 309 310 310 310 311 313 316 317 317 315 313 312 312 312 314 317 319 319 317 314 315 318 319 319
308 307 306 305 303 301 301 301 301 301 300 299 299 298 298 298 299 300 300 299 300 300 299 299 299 300 300 301 300 300 300 300 300 301 301 301 300 300 300 300 300 300 301 302 302 302 303 303 303 302 303 304 304 304 303 303 304 304 304 304 306 308 308 307 308 309 309 310 311 312 315 315 314 312 311 312 313 315 317 317 316 314 314 316 318 318 319
309 308 307 306 305 303 301 301 301 301 300 300 299 299 298 298 299 299 300 300 300 300 300 299 300 300 300 300 300 300 300 300 300 301 301 301 300 300 300 300 300 300 301 301 302 302 303 303 303 303 303 303 304 303 303 304 304 303 304 305 306 308 307 306 307 308 308 309 309 310 313 314 312 311 311 312 314 315 315 313 313 313 315 316 317 317 319
310 309 308 307 306 305 303 301 301 301 300 300 300 299 299 299 299 299 300 300 300 300 300 300 300 300 300 300 300 300 300 300 300 300 301 301 300 300 300 301 300 300 301 301 301 302 302 302 302 302 303 303 303 303 303 303 303 303 304 305 307 308 307 306 307 308 308 308 309 311 313 313 311 310 311 312 312 313 313 312 312 313 315 316 316 316 317
311 310 309 307 306 305 304 302 301 301 301 300 300 299 299 299 299 299 299 299 300 300 300 299 299 299 300 300 300 300 299 300 300 299 300 300 299 300 301 301 300 300 301 301 301 302 302 302 302 302 302 302 302 303 303 303 304 303 303 305 307 308 306 305 307 307 308 308 309 309 310 309 310 311 311 311 312 312 312 313 313 313 315 315 316 316 316
312 311 309 308 307 306 305 303 301 301 301 301 300 300 299 299 299 299 299 299 300 300 300 299 299 299 299 299 299 299 299 299 300 299 299 299 299 299 300 300 299 300 300 300 301 301 301 301 301 301 301 301 302 303 303 303 304 304 303 305 306 306 305 305 306 306 307 307 307 307 307 307 309 311 311 310 311 312 313 313 313 314 314 314 314 315 316
312 311 310 308 307 306 305 303 302 301 301 301 300 300 299 299 299 299 299 299 299 299 299 299 299 299 299 299 299 299 299 299 299 299 299 299 299 299 299 299 300 299 299 300 301 300 300 300 300 300 301 301 302 303 303 303 304 304 304 304 304 303 304 306 306 306 307 307 307 307 308 308 308 309 309 310 310 311 312 313 313 314 314 313 314 315 317
312 311 310 308 307 306 305 304 302 301 301 301 300 300 299 299 299 299 299 299 299 299 299 298 298 299 300 299 299 299 299 299 299 299 299 299 299 299 299 299 299 299 300 300 300 299 299 299 299 300 301 302 302 302 303 303 303 304 304 304 304 304 304 305 306 307 308 309 309 308 308 308 308 308 309 309 309 310 310 312 313 313 313 314 315 316 318
312 311 310 308 307 306 305 304 303 302 301 301 301 300 300 299 299 299 299 299 298 299 300 300 299 299 300 299 299 299 300 299 300 300 299 299 299 299 300 300 299 299 300 300 299 298 298 299 299 300 301 301 301 302 303 303 303 303 303 304 304 304 305 306 306 307 308 309 308 307 308 308 308 308 309 309 309 309 309 310 311 313 313 313 314 316 318
312 311 310 308 307 306 305 304 303 302 301 301 301 300 300 300 299 299 299 299 299 299 300 300 300 299 299 299 300 300 300 300 300 299 299 299 299 299 300 300 299 299 299 299 299 299 298 298 299 299 300 301 301 302 303 303 303 303 303 304 304 304 305 306 306 307 308 308 308 308 309 309 309 308 309 308 308 309 309 309 310 311 312 312 313 315 317
312 311 310 308 307 306 305 304 303 302 301 301 301 300 300 299 299 299 299 299 300 301 300 300 299 299 299 300 300 300 300 299 299 299 299 299 299 299 300 300 299 299 299 299 298 297 298 298 298 299 300 301 301 302 303 302 303 303 303 304 305 305 305 306 305 306 307 307 307 308 309 309 309 308 308 308 308 308 309 309 309 310 311 313 313 315 316
311 310 309 308 307 307 305 304 303 302 301 301 301 300 300 299 299 299 298 298 299 301 300 299 299 299 300 300 300 300 300 299 299 299 299 299 299 299 299 300 299 299 299 298 298 297 298 299 299 299 299 300 301 302 303 303 303 304 304 305 306 306 305 305 305 305 306 305 305 306 307 307 307 307 307 307 308 308 308 308 309 310 311 312 313 315 316
310 310 309 308 307 307 305 304 303 302 301 301 301 300 299 299 298 298 298 298 298 299 299 299 300 300 300 301 300 300 299 299 298 297 298 298 298 299 299 300 299 299 298 298 298 298 298 299 299 299 301 302 302 303 303 303 303 304 305 305 305 305 305 304 304 304 304 304 304 304 305 305 305 306 306 307 307 307 307 307 308 310 310 312 313 314 316
309 309 308 307 307 307 305 304 303 302 301 301 300 298 298 299 299 299 298 298 298 299 299 299 300 300 300 300 299 299 298 298 297 297 297 297 298 298 298 299 299 298 298 297 297 298 298 298 299 300 301 302 302 303 303 303 304 304 304 304 304 304 304 303 302 302 302 302 302 303 303 304 304 305 306 306 306 306 306 307 309 309 310 311 313 314 316
308 308 308 307 307 306 305 304 303 302 301 300 299 298 299 301 301 300 299 299 299 299 298 299 300 299 298 298 298 298 298 298 297 297 297 297 297 297 297 297 298 298 297 297 297 297 298 299 300 301 301 301 301 302 303 304 304 304 304 304 304 303 303 301 301 301 301 301 301 301 302 303 304 305 305 305 305 305 306 307 308 309 310 311 312 314 317
308 307 307 306 306 305 304 304 303 302 301 299 299 299 300 301 301 300 299 300 300 299 299 299 300 299 298 298 298 297 297 297 297 297 298 298 298 298 297 297 297 298 297 297 297 298 298 300 300 301 302 302 302 302 303 304 304 304 304 303 303 302 301 301 301 300 300 300 300 301 302 303 303 303 304 304 304 305 306 307 308 309 310 311 312 314 315
307 306 306 306 305 304 304 303 302 302 300 299 299 300 300 300 300 300 300 300 299 299 298 299 300 300 298 298 298 298 297 298 298 298 299 300 299 299 299 298 297 298 298 298 298 299 299 299 299 301 302 302 301 302 304 305 305 304 303 303 302 301 301 300 300 300 299 299 300 300 301 302 302 303 303 303 304 305 306 306 308 309 310 310 312 313 313
306 306 305 305 304 304 304 303 302 301 300 299 299 299 299 300 300 300 300 300 299 298 297 298 299 300 299 299 299 298 297 298 299 298 299 300 299 299 300 299 298 298 299 299 299 299 299 299 300 301 301 301 300 302 304 305 304 303 302 302 301 300 300 300 300 300 299 299 299 299 300 301 302 302 303 302 303 304 305 306 306 308 308 310 311 312 312
306 305 305 305 304 303 303 302 301 300 300 299 299 299 299 299 300 300 300 300 299 299 298 298 299 300 299 300 300 299 297 298 299 298 298 299 298 298 299 299 299 300 299 299 299 298 299 300 301 300 300 300 302 304 305 305 303 301 300 300 300 300 299 299 299 299 299 299 299 299 300 301 302 302 302 302 302 303 304 304 305 306 308 309 310 310 311
305 305 304 304 303 303 302 301 300 300 299 299 299 299 299 299 299 299 300 300 300 299 299 298 299 300 300 300 300 298 297 298 298 297 297 298 298 298 298 299 300 300 298 298 299 299 299 300 300 300 300 301 304 305 305 304 302 300 300 300 299 299 299 299 298 298 298 298 299 300 300 301 301 301 301 302 301 302 303 304 304 305 307 308 310 310 311
305 304 303 303 302 301 300 300 300 299 298 298 299 300 300 300 300 300 300 300 299 299 299 299 300 300 299 299 299 298 297 298 298 298 298 299 299 298 298 299 300 300 298 298 299 299 299 299 300 301 303 304 305 305 304 303 301 300 299 299 299 298 298 298 298 298 298 298 299 299 300 300 300 300 300 301 301 301 302 303 303 304 306 308 309 310 310
304 303 302 301 300 299 298 299 299 298 299 299 299 300 300 299 299 300 299 299 300 300 299 299 300 299 298 299 299 298 298 298 297 298 298 298 298 298 298 298 299 299 298 298 298 298 299 298 299 303 305 305 304 303 302 301 301 300 299 299 298 297 297 297 297 297 298 298 298 299 298 299 299 299 299 299 300 300 302 302 303 303 305 307 309 309 309
303 301 300 300 299 298 298 298 298 299 299 299 300 299 299 298 299 300 299 298 299 300 299 300 300 299 299 299 299 299 298 298 298 298 298 298 299 299 298 298 298 298 298 298 298 298 299 299 299 302 304 304 302 301 301 300 300 299 298 298 297 297 297 297 296 297 297 297 297 298 298 298 298 298 298 299 299 299 301 302 302 303 304 306 308 308 309
301 300 299 299 299 299 299 299 299 299 299 299 299 299 298 298 299 300 299 298 299 299 299 300 299 299 299 299 300 299 298 298 298 298 298 298 299 298 298 298 298 297 298 298 297 298 299 299 298 300 302 302 300 300 300 300 299 298 298 297 297 297 297 297 296 297 297 297 297 298 298 298 298 297 298 298 298 299 300 301 301 302 304 306 307 308 310
300 299 299 299 299 300 299 299 299 299 299 299 299 299 299 299 299 297 298 300 300 298 297 297 298 298 298 298 299 298 298 298 297 296 297 298 298 298 299 299 297 297 298 298 296 297 299 299 298 299 301 301 300 299 299 299 298 298 297 297 297 297 297 296 296 297 297 296 296 297 297 298 297 297 297 297 298 298 299 300 300 302 305 307 308 310 311
300 300 300 299 299 300 300 299 299 299 299 299 300 300 300 300 298 297 298 299 299 297 296 297 298 298 297 297 298 298 298 297 296 296 297 299 298 297 298 298 297 297 299 298 296 297 299 299 299 299 300 300 300 299 299 298 297 296 296 296 296 296 296 295 295 296 297 296 296 296 296 297 297 297 297 297 297 298 299 299 300 302 305 308 309 310 310
301 300 300 299 299 299 300 300 299 299 300 300 301 301 301 300 299 298 298 297 296 296 297 298 297 297 297 297 297 297 297 297 296 296 297 298 297 297 297 298 298 298 297 297 297 299 299 298 299 300 300 299 299 299 298 297 296 296 295 295 295 296 295 295 296 296 296 296 296 295 295 296 296 296 296 297 297 298 299 300 301 303 306 308 309 310 310
300 299 299 299 299 299 300 301 300 300 301 301 301 302 302 301 299 299 299 298 297 296 297 298 298 298 298 298 297 297 297 296 296 296 296 296 296 297 298 299 298 297 297 297 298 298 297 297 299 300 299 299 299 298 297 296 295 294 294 295 295 295 296 296 296 295 295 295 295 295 295 295 295 296 296 297 297 298 299 300 302 304 306 308 309 310 310
299 299 299 300 300 300 301 302 301 300 301 301 300 300 302 302 301 300 300 299 298 298 298 298 298 299 298 297 296 297 297 296 295 296 296 296 296 297 297 297 297 297 297 298 299 298 297 298 300 300 299 298 298 297 296 295 294 294 294 294 294 295 295 294 294 293 293 294 294 294 294 295 295 296 297 297 297 298 299 300 302 304 306 308 309 310 311
299 299 300 301 301 300 301 302 302 301 301 301 300 299 300 301 301 300 299 298 298 299 299 298 298 299 298 297 296 296 297 296 296 296 296 296 297 297 296 295 296 298 298 298 299 299 299 299 299 299 298 298 297 295 294 294 294 294 294 294 293 294 293 293 293 293 293 294 294 294 294 295 295 296 296 297 298 298 299 300 303 305 307 309 309 310 310
300 299 300 302 302 301 300 301 302 302 301 301 300 299 299 300 299 299 299 299 299 300 299 298 297 298 298 297 296 296 296 296 297 296 295 296 297 297 296 296 298 299 299 300 300 300 299 298 298 298 298 296 295 294 293 293 293 293 293 293 293 293 292 292 292 293 293 294 293 294 294 295 295 296 296 297 297 298 299 301 304 307 308 309 309 309 307
300 299 300 303 303 301 301 301 301 299 300 300 299 298 298 299 300 300 300 299 298 299 299 298 298 298 298 297 297 296 296 296 297 296 296 296 297 298 298 299 300 299 299 300 301 300 298 298 298 297 296 294 293 293 293 293 292 292 292 292 292 292 292 292 292 292 293 293 293 294 294 295 295 296 296 297 298 299 301 304 307 308 308 308 308 307 306
299 299 300 301 302 301 300 300 300 299 299 299 299 298 298 299 299 299 299 298 298 299 299 300 301 300 298 297 296 296 296 296 296 296 296 298 299 299 300 300 300 298 298 300 300 299 298 298 297 295 294 293 292 292 292 292 292 292 291 292 292 292 292 292 292 292 292 293 293 294 294 294 295 295 296 297 299 300 302 306 308 307 306 306 306 306 305
299 300 300 301 301 301 299 299 299 300 299 298 299 299 299 299 299 298 298 298 298 298 298 299 300 300 298 297 297 297 296 296 296 297 297 299 300 300 299 299 299 298 298 299 299 298 297 296 295 294 293 292 292 292 292 291 291 291 291 292 292 292 291 291 291 291 292 292 293 293 293 293 294 295 296 297 298 300 304 306 306 305 304 304 305 306 305
298 300 300 300 301 301 300 299 300 300 300 299 299 299 298 299 299 298 297 296 297 298 298 299 299 299 298 298 299 298 297 296 296 297 297 297 297 298 299 299 298 298 298 298 298 297 296 295 293 293 292 292 292 291 291 291 291 291 291 291 291 291 291 291 291 291 291 292 292 292 292 293 294 294 295 297 299 302 305 307 305 303 303 304 305 305 305
299 300 300 299 300 301 301 300 299 300 300 300 300 299 298 299 300 298 295 295 297 298 298 298 298 298 298 299 298 297 296 296 297 297 297 296 296 297 298 298 297 297 297 298 298 297 295 294 293 292 292 292 291 291 291 291 291 291 291 291 290 290 290 290 290 291 291 291 291 292 292 293 293 294 295 297 299 301 303 303 303 303 303 304 304 303 303
Wind_Speed
18 18 18 19 22 24 25 24 25 28 30 28 23 12 2 1 2 5 14 18 12 4 3 1 1 1 2 2 1 2 2 2 3 3 2 1 1 1 1 1 2 2 1 2 6 7 6 7 6 5 6 7 8 7 4 5 5 3 3 3 5 4 2 6 9 8 6 5 6 6 6 7 6 5 6 5 6 7 7 5 3 4 7 7 5 9 11
18 18 18 18 21 24 24 23 24 25 26 24 18 6 1 1 2 3 13 17 8 3 2 2 1 2 3 2 2 2 2 3 4 4 3 2 1 1 1 1 1 1 1 3 6 5 4 6 6 6 7 5 4 6 7 7 6 4 3 2 2 3 3 3 6 6 3 2 1 1 1 5 6 5 5 6 8 8 5 3 3 6 9 10 8 9 11
18 17 18 19 21 23 23 23 23 23 23 21 13 3 1 1 1 3 8 15 10 3 1 1 0 2 3 3 4 4 2 2 3 5 4 1 1 2 1 1 1 1 2 3 6 6 5 5 5 5 8 7 5 5 6 8 8 10 12 6 3 1 3 3 4 6 4 4 3 1 1 3 4 4 6 9 10 11 8 4 5 9 9 9 9 10 13
16 17 18 19 20 22 23 22 22 22 21 19 12 4 1 1 1 2 4 7 6 2 1 2 1 1 2 2 3 4 5 4 3 3 2 1 3 2 1 1 1 2 5 8 7 5 6 8 7 8 10 9 6 5 11 15 14 16 17 8 5 1 5 7 9 8 7 8 6 2 2 4 5 6 8 9 10 13 10 6 8 9 5 7 13 15 16
15 15 17 19 19 21 22 22 21 20 20 17 11 4 1 1 1 2 2 2 2 2 2 3 2 0 0 1 2 3 6 6 5 2 1 3 5 2 1 2 3 3 7 9 8 7 7 8 11 12 11 10 10 11 14 16 12 11 8 2 5 2 6 7 11 12 12 13 9 7 8 10 10 10 9 8 8 10 11 11 9 5 3 10 17 15 15
14 15 16 18 18 20 21 21 20 19 18 16 9 2 1 2 1 1 1 1 1 1 2 3 3 1 2 1 1 3 5 6 6 3 3 5 5 2 0 1 3 6 8 7 7 10 11 8 8 9 8 9 13 14 11 7 3 5 4 3 3 3 6 6 8 12 13 12 10 10 11 12 12 12 12 10 8 9 12 15 13 7 8 15 17 11 12
13 14 15 16 17 18 19 20 19 17 16 13 8 3 1 2 1 1 1 1 1 2 3 4 3 1 1 0 2 3 5 6 6 4 5 6 4 1 2 4 7 9 9 6 6 8 8 8 10 10 10 11 12 12 10 5 1 5 3 1 1 2 4 5 6 11 13 11 10 10 12 13 12 12 13 12 11 12 13 14 15 14 16 20 21 18 18
11 12 13 14 15 16 17 19 18 16 14 10 7 5 3 1 1 1 1 1 1 2 2 3 2 1 1 1 2 3 4 7 8 6 5 5 3 1 4 9 11 12 10 8 9 9 8 12 15 14 14 14 9 6 6 5 5 7 5 2 2 3 3 3 4 8 9 6 5 7 9 12 11 10 11 11 11 12 13 14 15 15 17 19 19 19 20
11 11 12 13 14 14 15 17 17 16 14 10 6 4 3 1 1 0 1 1 1 1 1 1 1 1 0 1 2 3 4 7 11 9 6 7 5 3 7 12 12 12 11 11 12 12 11 16 20 17 16 15 10 6 7 7 8 10 8 5 2 3 3 4 4 7 6 0 1 3 2 6 7 8 9 10 11 12 12 12 12 13 15 16 15 15 15
12 11 11 11 13 12 12 14 15 14 13 10 5 3 3 2 1 1 0 1 1 1 1 1 1 1 0 1 3 4 5 7 10 7 3 4 6 4 7 12 11 11 12 12 13 15 16 20 22 17 15 16 15 13 14 14 10 8 7 6 3 4 5 5 4 5 5 2 4 3 4 4 1 3 3 6 9 11 12 11 11 12 12 11 11 11 10
13 12 11 10 11 11 10 11 12 12 12 10 6 2 3 2 1 1 1 1 0 1 1 1 1 1 1 3 4 5 8 10 7 5 4 5 7 7 9 12 10 8 10 11 13 16 19 21 20 16 14 16 17 14 13 14 12 9 6 5 4 5 7 6 3 3 6 8 6 0 3 4 3 1 1 2 7 10 11 12 12 11 9 9 10 11 11
14 13 12 10 10 10 9 8 8 9 10 8 5 2 2 2 1 0 1 2 1 1 2 2 3 3 5 6 5 5 9 11 9 8 9 12 12 11 9 9 7 7 10 14 17 18 17 16 14 11 10 11 12 11 10 9 7 6 6 6 6 8 7 5 3 2 5 8 5 1 0 3 1 3 4 6 10 12 12 14 15 13 10 8 8 10 12
13 13 13 11 9 9 8 7 6 7 8 6 3 1 1 1 0 0 1 1 2 2 3 5 6 6 7 7 6 7 9 11 11 10 11 12 13 11 7 5 6 10 13 17 19 15 11 9 8 6 6 4 3 6 4 5 6 6 4 5 6 7 6 4 3 2 4 6 4 3 2 1 3 5 5 6 9 9 8 11 11 9 5 6 10 11 13
13 13 13 12 10 10 8 7 5 5 6 6 3 1 0 1 1 0 0 1 3 3 4 5 4 4 5 7 7 8 8 9 9 9 9 9 11 11 8 6 10 14 14 13 11 8 4 4 4 4 6 6 3 1 3 6 6 8 8 7 7 6 4 4 3 2 4 5 5 2 2 2 3 4 6 8 10 10 7 5 3 2 2 7 13 13 13
13 13 12 12 12 11 9 8 7 6 5 5 3 1 2 3 3 1 1 1 3 4 3 2 1 1 5 8 8 7 7 7 7 8 8 7 7 8 7 10 16 17 12 7 4 3 3 2 4 4 5 6 4 4 7 8 6 5 6 9 9 6 4 4 3 3 5 6 5 2 2 4 5 9 13 14 15 13 6 3 1 2 3 8 14 14 13
15 15 14 13 12 12 11 9 8 7 5 4 3 3 3 5 5 3 2 2 3 3 1 3 2 2 6 7 6 5 6 7 8 8 6 5 7 8 8 11 15 13 8 4 2 2 3 3 4 4 3 5 6 6 6 8 8 6 5 7 8 6 3 2 1 3 6 6 5 4 3 2 3 11 18 20 19 14 3 3 2 1 5 12 16 16 14
16 16 16 15 14 13 12 11 10 8 7 6 5 4 5 6 6 5 3 3 3 3 3 3 2 2 5 4 4 4 3 4 6 6 5 6 10 11 9 8 9 6 5 4 2 2 4 4 4 4 2 4 6 6 6 8 9 11 11 10 9 8 6 4 5 6 7 7 5 3 2 2 4 11 18 20 19 12 4 2 2 6 14 16 14 16 15
17 18 17 16 16 14 13 12 11 9 8 7 6 6 6 7 8 6 3 2 3 4 3 3 4 4 4 3 5 4 3 4 5 4 6 8 7 8 10 9 5 3 3 4 3 3 5 5 5 4 2 2 3 4 6 8 8 10 11 10 9 9 7 7 8 8 8 8 6 4 2 2 5 12 17 18 16 8 4 5 7 12 17 16 14 16 15
19 19 18 18 17 16 14 13 13 11 9 8 7 6 6 7 10 10 5 2 3 4 3 3 5 6 4 3 5 5 4 5 5 5 6 6 4 7 9 5 2 3 4 3 2 2 3 4 4 3 3 3 4 4 6 7 6 7 9 8 8 8 7 7 8 8 7 7 6 5 2 0 8 16 16 11 8 5 5 9 12 14 16 16 16 16 13
20 20 19 18 17 17 16 15 14 13 11 10 10 8 7 6 9 12 9 5 3 5 8 9 12 13 10 7 7 6 5 6 5 4 5 4 4 8 7 1 1 4 4 3 3 3 2 4 4 2 3 5 4 3 5 6 5 4 6 7 6 6 7 7 7 7 6 6 6 5 3 4 12 17 13 7 7 6 8 12 14 15 15 15 15 15 13
21 21 19 18 18 18 17 16 15 14 12 11 11 10 8 8 8 11 12 10 5 4 5 5 8 12 13 13 13 12 11 11 9 6 6 6 4 4 4 3 3 4 3 3 3 2 2 3 3 3 4 4 3 3 6 8 5 2 2 3 4 4 5 5 5 5 5 6 6 4 6 9 11 10 8 8 9 8 8 11 12 14 14 12 10 13 14
22 22 20 19 18 18 18 18 16 15 13 12 12 11 9 8 7 7 10 11 10 8 11 12 14 18 21 23 23 23 21 21 18 13 8 6 4 4 5 6 6 3 1 2 3 2 2 3 3 4 5 4 3 4 5 5 5 3 1 1 2 3 5 5 4 3 3 6 8 8 10 11 10 7 8 11 12 10 9 10 10 11 12 11 10 13 15
23 23 21 19 18 18 18 18 17 16 14 13 13 14 12 9 7 6 7 9 9 11 17 20 19 18 19 18 16 16 18 22 23 20 15 9 5 5 7 7 5 3 2 2 2 3 3 3 3 4 4 3 3 5 4 3 3 3 3 2 2 5 5 3 4 6 6 8 10 11 12 13 14 13 10 9 10 10 9 9 10 10 12 12 11 12 13
25 23 21 19 18 18 18 18 17 17 16 15 15 15 14 11 10 9 7 6 4 5 9 9 6 6 8 6 3 4 10 14 17 19 19 15 8 4 5 5 4 3 3 2 1 1 2 2 2 3 4 2 2 4 4 4 3 2 3 4 4 3 3 3 6 10 9 7 8 12 16 18 19 17 13 11 13 14 12 11 11 12 13 14 13 13 13
25 23 21 19 18 17 17 18 18 18 17 16 15 15 14 13 12 10 8 5 3 3 4 3 3 5 5 4 5 8 11 11 11 13 17 20 17 11 5 5 6 4 2 1 1 2 3 3 3 4 4 3 3 3 3 3 2 1 2 5 5 4 4 6 9 10 9 10 13 18 20 19 14 11 9 11 15 19 19 16 14 14 15 15 13 12 12
24 23 21 19 18 17 18 19 19 19 18 17 16 16 16 15 12 10 9 7 4 3 4 4 5 5 6 9 14 16 13 10 11 13 17 21 24 22 15 7 6 5 1 0 2 4 5 4 4 6 5 3 3 3 3 3 3 2 2 4 5 5 6 7 8 9 9 10 13 18 19 15 11 11 14 16 18 21 23 21 19 19 20 19 18 16 13
24 23 21 18 17 17 18 19 20 20 18 17 17 17 17 16 14 12 11 7 3 2 3 4 4 7 10 16 21 17 10 8 11 14 17 20 23 24 19 12 9 7 5 3 3 3 4 5 5 6 5 2 2 4 4 3 3 3 3 3 4 4 6 7 6 7 7 9 13 16 14 12 14 19 22 22 20 21 22 22 22 22 21 20 20 19 17
24 23 20 18 16 17 18 20 21 20 18 17 16 16 16 17 17 16 15 13 8 4 3 3 6 11 12 13 15 15 12 11 12 13 18 21 21 20 17 14 11 8 6 5 3 2 4 5 4 3 3 2 2 3 3 2 2 3 2 2 4 4 5 6 6 6 8 12 14 13 10 11 15 19 22 21 19 19 21 23 22 22 21 20 18 17 18
23 22 20 18 17 17 18 21 22 21 18 17 15 12 13 17 19 20 19 18 15 8 3 4 7 8 7 8 12 15 13 11 10 13 16 17 16 16 15 13 9 7 6 5 4 3 4 4 3 2 2 2 2 2 2 2 3 2 0 3 5 3 3 4 6 8 10 13 13 12 12 14 16 20 22 19 16 17 20 22 21 20 21 19 17 15 14
22 21 20 19 18 17 18 21 23 22 20 19 13 6 5 9 14 18 19 19 17 10 2 3 4 4 4 6 9 11 13 12 9 11 14 13 13 14 14 11 7 6 5 4 4 3 3 3 3 3 2 3 3 2 2 2 3 1 1 5 8 6 5 5 5 7 9 11 12 13 14 15 16 17 17 16 15 16 17 19 20 21 21 20 18 15 12
21 20 19 18 18 18 19 22 24 23 23 21 13 4 1 2 4 9 13 16 16 10 2 1 4 4 4 4 4 8 14 14 9 7 9 10 9 11 12 9 6 6 6 4 3 3 2 3 4 2 2 4 4 3 2 3 4 2 4 7 8 8 8 8 7 7 9 10 13 15 15 13 12 12 14 17 20 19 18 18 21 21 21 21 19 15 12
19 18 17 16 17 18 19 22 25 25 26 25 16 6 2 2 3 7 11 14 14 8 1 1 3 3 3 3 4 8 12 10 5 3 4 4 4 4 7 7 5 6 6 3 2 3 2 3 4 3 2 4 4 2 2 3 3 3 6 9 8 8 9 10 10 9 8 8 11 13 13 13 14 14 16 20 21 20 18 19 21 21 21 20 18 15 15
16 15 15 14 15 17 19 23 25 25 24 23 18 10 4 2 5 12 15 14 10 5 2 1 3 3 3 4 5 5 5 4 2 2 2 1 2 1 3 4 2 4 5 4 2 2 2 2 2 2 2 2 2 2 2 2 2 5 7 8 8 9 11 11 10 9 9 8 8 8 10 14 16 17 18 18 18 18 17 17 18 20 20 18 17 18 17
14 12 11 12 14 16 19 23 24 23 20 17 14 13 11 8 10 15 16 11 6 2 1 1 2 3 3 3 3 3 4 4 2 1 2 1 0 0 1 2 1 3 5 4 2 2 2 1 2 2 1 1 1 2 2 0 4 6 7 8 9 10 12 12 10 10 11 11 10 9 11 14 15 15 16 17 17 17 18 16 17 19 19 17 17 18 16
11 10 10 11 13 17 21 23 23 20 16 11 10 13 15 14 14 16 15 9 3 1 1 2 2 2 3 4 3 2 4 3 2 1 2 1 0 1 1 1 1 1 2 2 1 2 2 1 1 1 1 1 1 1 0 3 6 8 8 9 11 11 12 12 12 13 14 14 14 13 13 13 13 14 15 16 17 18 17 17 17 18 17 15 16 17 16
11 12 12 14 19 21 20 20 20 16 11 9 7 6 8 11 14 16 17 13 8 4 1 1 2 3 1 2 3 3 4 3 2 1 1 2 1 1 0 1 1 1 1 1 2 2 1 0 1 1 1 0 1 0 1 3 6 8 9 9 9 10 10 12 14 16 16 17 17 15 13 13 13 13 14 15 16 16 16 17 18 18 18 17 17 17 16
16 18 20 22 23 17 9 9 14 14 10 11 10 6 6 8 9 9 11 12 10 7 3 1 3 4 2 2 2 2 3 2 2 1 1 2 1 1 0 1 2 1 1 2 2 1 1 0 1 1 0 2 2 0 2 3 5 7 8 8 9 9 11 12 14 16 18 19 18 15 14 15 14 13 14 16 18 17 16 17 16 16 17 17 16 16 17
23 26 27 24 16 6 0 5 12 14 12 13 11 6 4 4 4 2 3 4 5 5 3 2 4 3 2 3 3 1 1 2 2 2 1 1 1 1 1 1 1 1 2 2 1 0 0 0 0 1 1 2 1 1 3 3 3 4 6 8 9 10 11 11 13 15 16 17 17 16 16 17 17 15 15 17 18 17 15 15 14 13 14 14 14 15 17
30 26 20 13 6 2 1 7 14 16 14 13 9 4 1 1 2 1 1 1 2 2 3 3 5 5 5 6 6 3 1 2 2 1 1 1 1 1 1 1 0 1 2 1 1 1 1 1 0 1 2 0 2 4 4 4 4 5 6 7 8 10 11 11 11 13 13 14 16 16 16 17 18 18 16 16 16 16 14 14 14 13 14 14 14 15 16
24 16 8 4 3 6 8 12 17 18 12 6 3 1 1 1 2 1 1 1 2 2 3 3 4 4 6 8 8 4 3 4 1 1 2 2 0 0 1 1 0 1 2 2 1 1 1 1 1 1 1 1 5 7 6 5 6 7 8 8 10 12 12 11 12 14 14 15 16 16 15 15 17 17 16 16 16 17 15 14 13 13 14 15 15 15 17
16 9 6 6 10 15 18 18 17 11 4 1 1 2 1 1 1 1 1 2 3 3 2 2 2 3 6 8 7 4 3 3 1 1 1 2 0 0 2 1 1 1 2 2 0 1 1 1 1 1 0 3 6 7 7 7 8 9 10 11 12 13 14 14 15 16 16 15 15 15 16 17 16 15 15 15 15 15 15 14 14 14 16 16 17 18 20
16 15 16 17 19 18 16 11 6 3 1 1 1 1 1 1 1 1 2 3 3 2 1 3 3 2 3 5 5 3 2 2 1 1 1 2 1 1 1 1 1 1 2 1 1 1 1 2 1 0 2 5 7 7 8 9 10 11 12 12 12 13 15 16 16 17 18 18 17 16 17 19 18 16 16 17 16 16 16 16 15 16 18 19 20 22 22
21 24 23 18 12 8 6 3 1 1 2 1 1 2 2 2 1 2 2 2 1 2 2 2 2 1 1 3 3 2 1 2 1 1 1 2 1 0 1 1 0 1 1 1 0 1 2 2 1 1 4 6 7 7 9 10 11 11 12 12 14 17 19 17 17 19 21 22 21 20 20 21 20 20 20 20 18 18 18 18 18 19 20 21 21 21 20
23 18 12 6 2 2 3 2 1 2 3 2 2 3 3 3 2 3 3 2 2 2 2 2 2 2 2 2 2 1 1 1 1 1 2 2 0 0 1 1 1 1 1 1 1 2 2 1 1 2 5 6 6 7 9 10 10 11 13 15 17 19 19 18 18 19 20 20 21 21 20 20 22 22 21 20 19 17 16 18 20 22 21 21 20 20 20
14 5 2 2 2 2 2 2 1 2 3 3 3 3 3 3 4 4 3 2 1 1 1 2 2 2 2 1 1 1 1 1 1 1 1 1 1 1 1 1 1 1 1 1 2 2 1 0 1 4 7 8 8 9 10 9 10 12 15 17 18 17 17 18 18 17 16 17 19 20 19 19 19 19 18 19 20 18 17 18 20 21 21 20 18 17 17
3 1 2 3 2 2 2 2 3 3 3 2 3 4 3 3 2 2 1 1 1 1 1 2 2 2 2 1 1 0 0 1 1 1 1 0 1 2 1 1 1 1 1 1 2 2 1 2 4 6 8 9 9 9 9 9 10 12 14 15 16 16 17 18 18 17 16 19 21 20 19 19 19 19 18 19 20 19 19 21 22 21 19 17 14 14 14
1 1 2 1 2 2 2 3 3 2 2 2 2 3 3 2 1 1 1 1 1 1 1 1 1 1 1 1 1 0 0 0 1 1 1 1 1 1 0 1 2 2 2 2 2 2 2 4 5 6 7 9 9 10 10 10 11 13 14 14 15 16 17 18 17 18 19 21 21 19 19 20 21 21 19 19 19 20 21 21 21 20 16 13 11 11 13
2 2 1 1 2 2 2 2 2 1 1 1 1 2 2 1 1 1 1 1 1 2 2 2 2 1 1 0 1 1 0 0 1 1 1 1 1 1 1 2 2 2 2 2 3 3 4 5 5 6 7 7 8 9 11 11 13 15 16 15 15 17 17 17 17 18 21 21 18 16 18 20 22 21 20 18 18 20 21 21 19 17 14 10 8 8 9
3 2 1 1 1 1 1 1 2 1 1 1 1 1 2 2 2 2 1 1 1 1 1 1 1 1 1 1 1 1 1 1 1 1 0 0 1 1 1 2 3 2 2 2 2 3 4 4 4 5 6 6 7 9 10 10 12 14 15 15 16 17 17 16 18 20 22 20 18 18 21 22 21 20 19 16 16 19 22 21 17 14 11 8 5 5 5
2 1 1 1 1 1 1 1 1 2 2 1 1 2 2 2 1 1 1 2 1 1 1 1 1 1 1 1 0 1 1 1 1 1 0 1 1 1 1 2 3 2 2 2 3 3 3 3 3 4 5 6 7 9 9 10 12 13 14 16 18 18 18 18 20 21 21 20 20 21 22 21 20 19 19 18 19 22 23 18 13 11 10 7 3 3 4
0 0 1 1 1 2 3 2 2 2 3 3 3 3 2 2 2 2 2 3 2 2 2 2 1 1 2 1 1 1 1 1 1 1 1 2 2 2 2 3 3 3 3 4 3 2 1 1 2 3 4 6 7 8 9 11 13 15 16 17 18 19 19 19 20 20 21 21 21 22 21 21 21 22 23 23 22 19 14 10 11 12 10 5 2 6 7
1 1 1 0 1 1 2 2 1 1 1 1 2 2 2 2 2 2 3 4 3 3 3 2 2 2 2 2 1 1 1 1 1 1 1 2 2 2 3 3 3 3 4 3 2 1 0 1 1 2 4 6 8 8 10 12 13 15 16 18 19 19 19 19 19 20 21 21 20 21 21 22 23 23 22 20 16 11 7 8 11 12 9 6 6 9 10
Wind_Direction
344 346 347 348 348 354 1 4 3 -0 357 358 359 358 7 37 319 337 358 350 341 27 91 346 30 91 319 315 250 284 304 288 296 321 340 3 1 327 294 249 256 265 266 311 327 326 299 269 253 260 271 248 243 253 240 247 263 252 273 266 202 197 240 253 265 275 255 251 291 293 238 213 233 240 222 225 222 222 239 248 249 240 234 240 243 253 267
344 345 346 347 348 353 2 5 3 3 2 357 355 358 107 31 275 311 6 7 8 83 64 339 352 355 329 332 337 313 262 290 314 312 308 325 333 302 290 293 285 291 333 313 301 304 287 269 260 260 278 271 251 267 262 257 265 243 228 226 178 203 220 240 282 295 282 255 294 26 158 206 228 235 219 226 229 230 252 270 265 262 245 240 249 257 262
346 344 344 346 347 352 2 5 2 4 3 358 358 359 237 342 219 252 5 26 45 86 57 23 195 338 341 342 346 345 302 283 301 291 279 302 345 291 259 302 290 269 314 296 278 267 242 258 284 271 273 286 285 283 283 274 269 260 253 236 141 220 238 210 268 286 288 292 291 47 75 206 214 224 218 223 223 220 234 241 233 248 243 231 240 252 263
346 344 343 346 346 350 360 5 3 2 2 359 2 4 281 0 44 288 344 29 50 81 71 54 65 357 357 346 352 352 324 305 306 282 254 31 357 307 243 20 19 334 332 324 307 275 228 238 276 282 280 288 287 304 312 297 286 282 275 249 147 200 255 229 239 250 261 275 267 219 259 250 231 224 213 217 220 215 220 225 228 240 237 233 242 243 260
344 344 345 347 346 348 357 4 4 1 1 2 3 16 46 41 32 358 344 350 36 73 75 43 24 1 1 0 0 343 323 324 336 304 250 348 339 305 203 74 37 343 333 330 314 301 279 259 270 278 278 287 295 302 302 291 293 313 309 189 141 246 270 243 237 241 251 266 262 235 241 252 249 242 230 228 228 217 219 227 234 243 248 252 250 239 246
341 346 346 347 346 346 354 4 5 1 2 4 6 21 38 25 123 108 350 304 346 34 7 4 5 282 210 167 3 336 334 346 349 328 319 330 329 319 252 26 1 327 321 322 302 306 311 288 276 285 288 306 315 315 311 300 328 33 48 124 133 272 270 255 247 251 256 264 261 241 238 245 246 243 243 245 243 230 230 238 244 242 240 253 261 257 254
336 342 342 344 346 345 350 1 6 5 4 7 22 47 30 27 82 99 344 303 266 290 312 329 340 297 249 195 24 350 337 340 337 314 310 318 317 325 290 298 323 322 315 312 297 302 313 304 299 304 307 314 317 315 316 312 60 64 55 231 217 242 265 271 266 269 273 269 253 233 228 234 236 237 243 244 242 239 240 248 254 251 248 256 269 279 276
326 336 337 340 345 346 349 357 5 9 9 17 44 48 27 49 46 348 338 323 280 273 309 327 327 330 336 340 11 351 322 327 331 312 274 276 288 18 315 311 322 324 315 304 285 272 273 283 287 294 305 310 311 305 295 281 304 337 335 274 207 199 270 301 288 284 286 266 240 238 229 227 231 242 249 246 245 249 249 252 255 255 257 260 266 274 274
314 327 332 334 341 346 348 355 4 11 15 33 65 50 31 83 120 346 319 329 325 293 311 342 314 296 25 11 354 341 317 327 332 314 250 236 256 305 327 322 323 319 307 294 285 279 278 278 275 275 281 282 280 277 266 271 307 317 310 298 246 218 277 306 303 303 304 168 16 324 222 199 219 245 259 258 253 252 253 254 247 240 248 259 261 261 267
302 314 324 329 337 344 348 353 2 11 21 42 70 53 34 65 121 125 313 315 356 346 327 339 302 282 93 6 341 321 309 319 326 317 262 232 250 271 312 315 313 308 298 291 295 302 298 287 280 277 268 259 259 261 257 263 280 285 290 302 269 239 290 306 309 313 305 334 20 39 122 129 186 259 271 269 257 253 258 262 255 241 241 254 260 261 277
293 300 312 320 328 337 345 350 357 9 24 42 59 57 34 32 41 76 351 311 322 11 339 324 330 356 348 328 326 305 304 315 319 304 297 296 285 284 299 300 294 290 289 291 300 303 294 283 277 273 261 251 250 249 251 259 258 245 252 285 285 286 301 307 309 299 299 323 346 307 156 87 38 331 167 227 269 276 272 267 267 266 260 261 270 282 300
289 291 299 309 315 326 337 342 348 359 14 33 61 79 47 39 49 17 350 339 322 325 326 297 282 285 288 297 301 292 298 306 304 287 283 290 295 296 298 294 286 290 303 308 311 308 300 292 284 272 259 250 239 232 241 259 264 248 230 235 277 304 310 310 307 268 291 318 336 305 104 67 23 259 228 233 259 268 267 268 271 267 262 274 295 305 311
288 287 291 296 300 310 322 329 332 342 355 9 40 82 49 57 98 284 333 316 291 288 305 297 283 280 283 282 282 285 291 293 292 287 282 285 292 295 290 274 272 290 308 312 310 309 309 308 303 296 307 312 191 181 223 287 330 341 300 244 273 301 307 307 303 293 308 319 333 345 342 260 253 260 265 275 277 268 260 271 272 251 246 338 346 327 316
289 287 287 289 290 294 303 311 309 314 335 346 352 339 204 176 194 228 200 290 292 278 283 295 291 276 280 288 296 299 298 294 293 291 285 282 287 291 290 279 281 294 306 308 304 306 311 323 326 327 343 2 51 110 330 332 338 338 333 325 313 299 297 316 331 345 337 324 314 300 265 293 321 321 317 320 319 306 280 271 292 226 232 342 337 318 312
290 289 288 286 284 282 283 292 294 290 305 325 327 285 230 200 198 218 198 272 298 288 264 250 218 302 304 304 308 312 312 313 313 306 293 278 273 280 291 297 298 302 305 300 304 323 321 335 350 351 6 13 357 320 324 330 320 306 318 327 326 319 315 328 342 344 337 330 318 312 346 347 343 336 332 332 330 325 300 227 263 213 228 320 325 318 316
287 288 287 286 282 275 271 275 281 277 275 289 298 285 245 207 197 212 230 254 287 291 242 173 160 306 306 301 303 310 313 319 327 324 315 304 302 299 296 298 301 303 305 297 297 330 339 10 6 350 6 7 343 315 317 328 321 306 304 316 331 343 329 296 338 350 349 351 344 347 7 0 320 334 338 335 332 334 333 190 221 282 322 324 322 319 316
283 282 281 281 279 273 264 264 271 270 262 261 271 277 251 212 198 206 225 237 256 272 255 198 188 290 299 291 299 307 299 305 317 320 313 315 319 317 318 319 314 311 321 329 327 352 8 23 13 353 5 3 339 315 316 332 330 326 329 335 352 4 0 2 11 1 356 357 349 338 334 269 307 342 344 333 324 321 314 273 309 334 327 321 316 316 316
281 280 277 275 274 271 262 257 261 263 257 250 253 264 253 223 207 209 220 236 252 272 271 218 211 251 274 274 292 300 292 294 302 300 299 302 311 320 328 334 335 328 338 343 343 3 14 21 12 353 337 336 338 325 326 333 330 326 329 333 345 354 356 4 5 356 355 358 347 325 284 260 331 348 342 326 314 313 338 335 322 318 315 310 307 309 308
284 284 280 274 269 267 261 255 254 255 252 242 238 248 250 227 213 212 216 229 236 247 261 232 234 255 264 255 267 270 261 271 281 292 300 302 327 335 324 318 339 344 340 342 344 359 10 10 7 347 316 334 350 333 325 326 317 316 324 331 345 352 351 358 359 353 353 350 333 319 293 51 354 343 334 327 326 334 331 312 305 306 306 305 308 306 302
290 289 286 279 271 263 258 252 249 249 245 235 230 237 250 242 222 216 220 232 252 265 270 261 254 257 257 246 248 257 265 268 264 258 267 279 333 343 328 292 41 347 334 342 358 8 3 354 359 348 323 336 342 323 323 320 296 289 315 329 343 349 347 353 357 350 342 337 343 347 327 334 347 340 334 344 350 325 303 303 306 307 307 309 311 307 302
294 292 289 283 274 264 257 250 245 244 240 231 229 237 251 257 241 231 234 240 251 279 278 260 250 251 251 247 247 251 255 256 253 251 261 274 304 332 322 314 335 339 340 342 342 352 356 343 346 343 328 321 315 326 332 328 314 260 252 298 322 348 355 348 343 349 349 336 341 340 299 303 328 336 319 307 305 293 290 303 307 306 308 311 309 301 298
294 292 288 284 277 267 257 247 240 239 236 228 224 229 241 254 250 239 237 236 239 257 269 275 278 272 266 264 261 255 250 249 252 255 261 273 276 257 264 286 292 278 277 314 308 313 342 336 320 318 316 307 306 316 318 317 323 325 272 272 319 338 334 318 303 307 311 294 285 279 282 294 310 312 292 289 294 297 298 298 297 298 303 308 304 297 296
291 290 286 283 277 268 257 243 235 235 234 226 222 223 230 242 244 241 247 246 250 265 270 274 280 278 272 271 266 253 244 245 249 247 241 242 261 258 250 262 272 247 225 264 297 310 313 314 311 306 301 291 300 308 303 287 295 313 319 290 275 302 313 297 284 299 296 276 270 276 294 311 313 306 293 287 297 307 308 305 305 303 303 307 304 297 296
287 287 284 281 276 268 255 239 230 231 230 224 223 227 232 241 245 249 259 262 268 282 275 271 273 272 273 278 260 232 237 242 248 248 237 224 224 260 252 222 216 225 226 232 284 344 309 300 298 281 276 265 263 290 300 290 271 294 321 305 289 307 322 307 312 321 320 304 298 308 318 319 311 302 301 311 319 323 325 324 320 313 310 309 306 303 304
283 284 284 282 276 266 252 236 226 226 226 222 222 227 232 240 246 246 246 248 258 284 291 292 271 266 281 283 262 268 274 270 262 253 236 219 214 231 244 189 191 219 240 190 252 287 280 272 268 275 279 262 236 259 280 281 289 341 321 308 316 338 335 325 325 323 310 300 311 320 316 306 291 283 299 323 331 330 329 327 323 318 314 313 310 308 308
281 283 284 281 274 263 249 234 223 220 222 219 218 221 227 234 240 236 233 242 253 252 263 279 275 283 310 304 290 290 291 280 260 247 239 229 225 231 241 237 224 238 254 204 261 271 270 264 259 264 264 234 217 254 258 258 288 297 263 286 306 313 318 326 324 314 304 303 319 328 323 312 310 319 323 329 333 330 327 327 327 326 325 325 324 321 317
277 280 279 276 271 261 247 232 220 216 217 217 217 222 229 235 238 233 225 224 230 246 247 249 273 300 306 300 298 301 298 276 260 247 242 240 233 231 236 243 248 250 250 252 259 248 246 253 248 242 242 223 226 261 262 269 290 277 256 287 320 324 330 338 328 317 319 319 325 332 330 320 321 323 321 324 328 326 325 327 329 328 327 327 326 323 322
275 276 273 268 262 254 243 229 216 210 211 212 214 222 233 239 242 241 234 228 230 254 280 266 284 298 298 293 298 305 301 285 270 251 242 241 235 228 228 232 240 244 239 240 241 215 225 239 235 224 226 214 223 244 248 257 263 249 255 325 350 343 335 341 334 314 304 305 312 322 319 302 302 308 310 316 325 327 327 327 326 324 324 325 324 321 319
274 271 267 260 251 243 236 225 211 203 202 202 204 219 243 251 249 245 239 234 232 241 291 296 283 289 294 294 300 304 303 295 273 252 246 240 230 224 224 226 228 225 219 224 231 230 234 234 229 235 222 194 219 256 250 253 259 231 228 343 348 340 304 306 311 300 294 300 309 314 307 298 299 302 305 311 322 327 325 323 323 324 325 324 320 315 313
274 270 266 259 247 237 230 218 205 195 191 188 182 189 257 265 250 237 231 228 226 226 255 302 278 288 306 302 298 299 304 306 289 257 242 231 224 224 222 219 215 204 200 216 223 225 245 243 234 249 228 192 218 258 248 256 264 199 56 348 341 338 321 309 305 296 293 301 310 308 298 292 294 299 303 310 321 325 323 321 323 326 326 324 319 312 309
274 270 266 261 248 236 224 209 198 191 184 174 160 144 250 248 225 216 212 211 212 212 215 272 266 290 305 283 273 296 305 307 302 268 240 225 224 224 214 203 198 191 191 206 217 213 248 245 228 244 217 190 210 247 262 260 260 276 359 346 335 329 326 324 318 305 297 303 310 307 299 296 303 312 316 320 324 326 324 323 325 326 324 321 317 312 312
273 267 263 258 246 235 218 199 191 188 183 177 171 169 188 178 164 171 175 181 189 196 207 281 272 299 313 282 280 300 304 301 299 301 268 219 197 199 193 189 193 190 185 186 200 206 227 231 230 258 245 189 195 235 253 245 261 315 343 337 329 326 326 324 320 317 316 321 322 318 315 319 324 323 317 316 318 320 321 322 322 323 322 322 321 324 329
266 261 256 247 234 222 206 191 187 188 187 187 191 194 190 164 156 155 153 156 168 181 184 219 264 284 293 295 303 319 325 312 301 336 323 217 153 144 188 182 178 188 186 188 206 219 219 201 217 259 250 172 180 242 228 216 323 341 333 327 327 328 324 317 313 314 320 326 325 312 304 306 308 308 307 308 311 315 318 320 321 323 327 331 336 336 334
253 248 240 228 214 202 189 181 181 183 184 189 204 213 211 199 170 158 156 153 153 168 177 180 263 282 289 298 314 9 17 350 313 338 347 331 114 336 231 182 161 193 196 198 222 242 228 207 217 236 199 127 180 243 225 33 5 351 337 333 335 331 326 323 322 321 324 326 320 301 288 289 295 303 308 311 314 318 322 325 330 332 333 334 337 336 331
228 211 205 201 190 180 173 171 172 174 176 188 217 229 222 210 190 180 180 178 157 127 176 185 223 271 306 306 298 358 16 350 299 273 313 307 319 342 287 229 231 214 189 192 233 237 221 207 218 232 219 154 180 220 308 5 1 353 345 342 341 336 330 327 323 321 322 321 315 307 301 300 306 312 314 316 320 322 324 329 335 336 333 329 331 333 329
187 174 174 171 163 158 160 167 171 171 174 187 201 211 209 202 197 200 208 219 226 222 183 147 198 209 251 289 292 334 352 334 305 268 275 282 306 351 38 233 266 284 123 190 233 237 206 157 220 256 265 147 133 108 3 3 357 350 341 333 331 326 318 313 312 313 314 313 310 308 310 315 321 321 317 316 320 321 323 329 335 336 333 329 329 331 328
162 158 154 149 147 145 143 165 176 178 185 189 179 147 133 156 174 196 212 221 224 216 198 229 232 213 194 230 269 331 341 318 320 330 285 278 301 314 246 259 278 300 309 248 244 252 65 179 244 256 140 103 120 102 9 5 353 340 325 315 315 316 313 312 314 315 316 316 317 320 323 325 326 325 320 319 320 321 323 327 332 333 329 323 321 324 322
152 152 148 141 137 133 84 193 187 184 179 175 170 152 126 143 156 178 195 199 208 204 190 223 236 213 178 208 233 272 342 317 333 343 290 283 315 300 269 252 244 287 301 278 259 332 28 290 200 151 119 110 111 29 7 348 318 307 303 302 310 316 314 314 318 320 320 321 322 324 325 322 320 322 321 318 316 317 318 319 321 323 321 315 314 317 317
151 149 145 138 137 143 164 181 180 170 158 157 162 159 133 156 164 173 174 191 223 205 188 222 235 215 199 222 241 248 226 255 299 307 255 265 318 309 303 311 252 274 294 293 333 0 314 318 52 138 152 84 351 351 349 321 295 302 308 306 311 316 312 310 312 312 310 309 308 310 312 312 312 314 316 313 311 311 310 311 314 316 316 312 310 312 313
148 141 132 125 124 118 123 144 156 153 144 144 164 147 128 195 187 158 157 195 228 221 202 222 241 222 211 230 251 249 195 195 239 309 278 265 276 295 295 303 283 274 280 279 325 338 301 296 306 188 167 354 342 340 335 317 309 315 318 317 318 318 313 310 309 307 303 303 303 304 303 300 301 304 306 306 307 307 306 307 310 310 309 308 307 307 310
150 142 132 129 129 128 130 138 147 148 133 100 155 138 139 186 176 120 170 210 228 238 213 191 218 226 213 218 233 238 207 194 192 340 282 273 275 228 260 282 309 280 266 257 293 19 325 282 263 201 74 343 331 326 323 318 318 321 322 322 322 318 314 313 314 313 312 310 309 308 305 302 299 299 299 299 300 301 301 303 304 302 302 305 305 306 308
164 152 136 127 127 131 136 140 149 153 125 121 159 160 162 170 159 172 216 220 224 238 194 177 200 231 195 188 201 220 217 192 157 144 244 267 264 218 255 303 351 258 255 272 28 46 290 263 239 168 356 337 329 327 327 325 325 324 322 321 322 321 320 320 320 319 317 313 310 309 308 304 300 298 298 298 297 296 295 296 296 297 301 304 305 305 304
146 136 128 123 125 137 149 158 180 154 139 133 144 155 169 195 205 202 222 233 219 204 190 177 178 175 150 164 180 206 219 206 190 187 234 265 298 307 278 301 307 253 282 325 16 257 265 258 235 348 337 329 327 332 331 328 325 322 320 322 325 325 323 321 318 317 316 314 312 311 310 307 305 304 303 301 296 293 293 294 293 294 299 303 303 302 298
129 124 117 111 121 172 171 159 147 157 172 186 185 174 183 205 204 193 206 218 197 187 185 169 170 188 192 170 161 187 216 209 194 205 232 245 259 3 264 256 260 292 311 300 253 267 276 242 236 310 323 322 326 333 332 329 327 324 323 325 327 326 323 321 318 317 317 317 316 314 311 308 307 307 306 301 294 290 292 294 294 295 298 300 300 298 294
126 117 102 107 132 180 182 160 158 184 194 193 190 189 195 197 195 198 205 196 155 151 158 152 164 184 184 130 127 217 203 145 172 214 238 250 247 242 241 251 279 306 313 293 272 272 276 259 305 324 328 329 331 332 329 324 323 324 325 325 326 326 323 322 321 320 320 319 318 315 311 307 306 305 304 300 295 291 289 290 292 296 300 300 298 294 293
120 136 137 135 160 204 189 160 167 194 211 201 189 192 198 196 191 188 182 159 135 138 152 154 166 180 174 140 136 210 84 113 205 217 173 162 240 242 230 268 286 281 273 269 257 246 274 321 331 331 330 329 328 325 321 319 323 327 326 324 324 324 324 322 321 320 318 318 317 315 311 307 307 306 303 301 300 297 291 289 292 295 297 297 294 291 295
81 133 126 130 157 172 185 191 191 192 191 188 191 196 196 188 156 136 156 175 162 141 131 132 143 164 162 136 151 162 47 33 245 240 173 193 247 276 322 260 259 249 248 266 274 284 315 326 328 327 327 328 325 322 321 322 324 326 326 323 321 322 323 321 319 319 319 319 318 315 311 309 310 310 307 304 303 300 295 292 295 298 298 295 294 297 304
130 149 166 171 163 172 198 198 171 148 164 194 202 184 166 159 185 196 171 148 146 153 151 142 135 140 131 102 151 173 96 140 231 239 219 210 254 297 311 265 260 255 248 267 295 321 328 326 325 325 323 323 322 323 325 326 325 326 327 325 322 322 323 321 319 318 318 317 316 314 313 312 311 310 308 305 303 300 297 298 303 305 299 294 300 310 317
118 131 136 155 156 169 189 160 150 174 195 173 151 156 156 170 208 209 161 129 152 177 159 129 136 169 172 123 123 185 206 211 216 228 40 210 234 251 269 261 264 267 253 247 286 315 322 326 327 321 319 321 326 325 324 324 325 326 326 323 321 322 322 319 317 317 317 317 316 316 315 314 312 310 309 307 305 302 300 301 307 310 306 304 320 338 342
91 114 151 162 149 135 131 137 165 195 195 185 192 188 168 168 211 223 182 158 147 117 103 98 92 136 141 122 127 218 218 206 189 184 218 227 210 199 224 235 238 255 283 287 291 304 316 328 326 318 319 326 330 326 322 323 327 328 326 324 323 322 320 318 317 317 318 318 318 317 315 314 313 312 309 304 301 298 295 297 312 328 323 315 336 43 48
123 162 224 212 167 156 158 157 166 185 196 201 202 192 176 182 209 204 172 158 145 134 152 169 149 117 140 170 194 203 198 169 160 192 242 242 194 173 218 240 248 272 293 293 289 295 310 319 319 321 327 331 330 324 322 326 329 329 326 325 324 324 322 321 321 320 321 322 322 320 319 317 315 313 310 306 304 301 297 305 333 344 338 329 56 85 79
157 160 198 192 110 144 151 140 131 155 170 177 180 174 174 200 211 169 149 155 168 177 178 166 131 131 164 189 188 152 136 151 175 216 247 239 204 197 226 251 271 287 287 282 281 277 258 274 295 310 324 329 329 324 322 326 330 331 330 329 329 328 327 326 325 325 325 326 325 323 323 321 320 320 319 317 317 322 326 327 336 349 359 14 52 70 73